When you browse on this site, cookies collect data to enhance your experience and personalize the content and advertising you see.
Visit our Privacy Policy to learn more. By continuing to use the site, you agree to this use of cookies and data.
  • In Hungary
  • List of Countries
  • For 7 days
  • Water Temperature
  • Satellite Maps
  • Weather Map
  • News
  • Weather Widgets
  • user-avatar
    Login

    Hourly Weather Tolcz

    Today, 20 January, Sunday

    Time Temperature Precipitation Wind Pressure Humidity
    00:00 -1°C° 0 mm 1 mps 758 mmHg 87%
    01:00 -4°C° 0 mm 2 mps 758 mmHg 86%
    02:00 -2°C° 0 mm 1 mps 758 mmHg 85%
    03:00 -2°C° 0 mm 1 mps 758 mmHg 85%
    04:00 -2°C° 0 mm 1 mps 758 mmHg 85%
    05:00 -2°C° 0 mm 1 mps 758 mmHg 85%
    06:00 -2°C° 0 mm 1 mps 758 mmHg 85%
    07:00 -4°C° 0 mm 0 mps 758 mmHg 82%
    08:00 -3°C° 0 mm 0 mps 758 mmHg 79%
    09:00 -2°C° 0 mm 0 mps 758 mmHg 76%
    10:00 -2°C° 0 mm 0 mps 758 mmHg 72%
    11:00 -1°C° 0 mm 0 mps 758 mmHg 68%
    12:00 +1°C° 0 mm 1 mps 758 mmHg 64%
    13:00 +1°C° 0 mm 1 mps 759 mmHg 68%
    14:00 0°C° 0 mm 1 mps 759 mmHg 71%
    15:00 0°C° 0 mm 1 mps 759 mmHg 75%
    16:00 -1°C° 0 mm 1 mps 759 mmHg 78%
    17:00 -1°C° 0 mm 1 mps 759 mmHg 80%
    18:00 -1°C° 0 mm 1 mps 759 mmHg 83%
    19:00 -2°C° 0 mm 1 mps 760 mmHg 85%
    20:00 -2°C° 0 mm 1 mps 760 mmHg 86%
    21:00 -2°C° 0 mm 1 mps 760 mmHg 86%
    22:00 -2°C° 0 mm 1 mps 760 mmHg 87%
    23:00 -2°C° 0 mm 1 mps 760 mmHg 86%

    Tomorrow, 21 January, Monday

    Time Temperature Precipitation Wind Pressure Humidity
    00:00 -2°C° 0 mm 1 mps 760 mmHg 86%
    01:00 -2°C° 0 mm 1 mps 761 mmHg 86%
    02:00 -2°C° 0 mm 1 mps 761 mmHg 85%
    03:00 -4°C° 0 mm 2 mps 761 mmHg 85%
    04:00 -5°C° 0 mm 2 mps 761 mmHg 84%
    05:00 -5°C° 0 mm 2 mps 760 mmHg 84%
    06:00 -5°C° 0 mm 2 mps 760 mmHg 84%
    07:00 -5°C° 0 mm 2 mps 760 mmHg 83%
    08:00 -5°C° 0 mm 2 mps 760 mmHg 80%
    09:00 -5°C° 0 mm 3 mps 761 mmHg 77%
    10:00 -5°C° 0 mm 3 mps 761 mmHg 74%
    11:00 -4°C° 0 mm 3 mps 760 mmHg 70%
    12:00 -2°C° 0 mm 3 mps 760 mmHg 66%
    13:00 -2°C° 0 mm 4 mps 760 mmHg 62%
    14:00 -2°C° 0 mm 3 mps 759 mmHg 63%
    15:00 -2°C° 0 mm 3 mps 759 mmHg 64%
    16:00 -2°C° 0 mm 3 mps 759 mmHg 65%
    17:00 -2°C° 0 mm 3 mps 759 mmHg 65%
    18:00 -4°C° 0 mm 4 mps 758 mmHg 65%
    19:00 -4°C° 0 mm 4 mps 758 mmHg 64%
    20:00 -4°C° 0 mm 4 mps 758 mmHg 64%
    21:00 -4°C° 0 mm 4 mps 757 mmHg 63%
    22:00 -4°C° 0 mm 4 mps 757 mmHg 62%
    23:00 -4°C° 0 mm 4 mps 757 mmHg 62%

    Day after tomorrow, 22 January, Tuesday

    Time Temperature Precipitation Wind Pressure Humidity
    00:00 -4°C° 0 mm 4 mps 756 mmHg 63%
    01:00 -4°C° 0 mm 4 mps 756 mmHg 63%
    02:00 -4°C° 0 mm 3 mps 756 mmHg 64%
    03:00 -5°C° 0 mm 3 mps 755 mmHg 65%
    04:00 -5°C° 0 mm 3 mps 755 mmHg 65%
    05:00 -5°C° 0 mm 3 mps 755 mmHg 67%
    06:00 -5°C° 0 mm 3 mps 754 mmHg 69%
    07:00 -6°C° 0 mm 3 mps 754 mmHg 71%
    08:00 -5°C° 0 mm 3 mps 754 mmHg 69%
    09:00 -5°C° 0 mm 3 mps 753 mmHg 68%
    10:00 -5°C° 0 mm 3 mps 753 mmHg 67%
    11:00 -4°C° 0 mm 3 mps 753 mmHg 65%
    12:00 -2°C° 0 mm 3 mps 752 mmHg 63%
    13:00 -2°C° 0 mm 3 mps 752 mmHg 61%
    14:00 -2°C° 0 mm 3 mps 751 mmHg 64%
    15:00 -2°C° 0 mm 3 mps 751 mmHg 67%
    16:00 -4°C° 0 mm 3 mps 750 mmHg 70%
    17:00 -4°C° 0 mm 3 mps 750 mmHg 71%
    18:00 -4°C° 0 mm 3 mps 750 mmHg 71%
    19:00 -5°C° 0 mm 4 mps 750 mmHg 72%
    20:00 -5°C° 0 mm 4 mps 750 mmHg 71%
    21:00 -5°C° 0 mm 4 mps 749 mmHg 69%
    22:00 -5°C° 0 mm 4 mps 749 mmHg 67%
    23:00 -5°C° 0 mm 4 mps 749 mmHg 67%

    23 January, Wednesday

    Time Temperature Precipitation Wind Pressure Humidity
    00:00 -5°C° 0 mm 4 mps 749 mmHg 67%
    01:00 -6°C° 0 mm 3 mps 749 mmHg 67%
    02:00 -6°C° 0 mm 3 mps 748 mmHg 68%
    03:00 -6°C° 0 mm 3 mps 748 mmHg 68%
    04:00 -6°C° 0 mm 3 mps 748 mmHg 69%
    05:00 -7°C° 0 mm 4 mps 748 mmHg 70%
    06:00 -7°C° 0 mm 4 mps 748 mmHg 70%
    07:00 -7°C° 0 mm 4 mps 748 mmHg 71%
    08:00 -7°C° 0 mm 4 mps 748 mmHg 71%
    09:00 -5°C° 0 mm 4 mps 749 mmHg 70%
    10:00 -5°C° 0 mm 4 mps 749 mmHg 70%
    11:00 -4°C° 0 mm 4 mps 749 mmHg 67%
    12:00 -3°C° 0 mm 4 mps 749 mmHg 63%
    13:00 -3°C° 0 mm 4 mps 749 mmHg 60%
    14:00 -2°C° 0 mm 3 mps 749 mmHg 63%
    15:00 -4°C° 0 mm 3 mps 749 mmHg 66%
    16:00 -4°C° 0 mm 3 mps 750 mmHg 69%
    17:00 -5°C° 0 mm 3 mps 750 mmHg 71%
    18:00 -5°C° 0 mm 3 mps 750 mmHg 73%
    19:00 -5°C° 0 mm 3 mps 751 mmHg 76%
    20:00 -6°C° 0 mm 3 mps 751 mmHg 77%
    21:00 -6°C° 0 mm 3 mps 751 mmHg 77%
    22:00 -5°C° 0 mm 2 mps 752 mmHg 78%
    23:00 -5°C° 0 mm 2 mps 752 mmHg 80%

    24 January, Thursday

    Time Temperature Precipitation Wind Pressure Humidity
    00:00 -5°C° 0 mm 2 mps 752 mmHg 81%
    01:00 -6°C° 0 mm 2 mps 752 mmHg 82%
    02:00 -6°C° 0 mm 2 mps 752 mmHg 83%
    03:00 -6°C° 0 mm 2 mps 752 mmHg 84%
    04:00 -6°C° 0 mm 2 mps 752 mmHg 85%
    05:00 -4°C° 0 mm 1 mps 753 mmHg 85%
    06:00 -4°C° 0 mm 1 mps 753 mmHg 84%
    07:00 -4°C° 0 mm 1 mps 753 mmHg 84%
    08:00 -4°C° 0 mm 1 mps 754 mmHg 82%
    09:00 -3°C° 0 mm 1 mps 754 mmHg 79%
    10:00 -3°C° 0 mm 1 mps 754 mmHg 76%
    11:00 -2°C° 0 mm 1 mps 754 mmHg 73%
    12:00 -2°C° 0 mm 1 mps 754 mmHg 69%
    13:00 -1°C° 0 mm 1 mps 754 mmHg 66%
    14:00 -1°C° 0 mm 1 mps 754 mmHg 67%
    15:00 -2°C° 0 mm 0 mps 754 mmHg 68%
    16:00 -3°C° 0 mm 0 mps 754 mmHg 69%
    17:00 -3°C° 0 mm 0 mps 754 mmHg 69%
    18:00 -3°C° 0 mm 0 mps 755 mmHg 70%
    19:00 -3°C° 0 mm 0 mps 755 mmHg 71%
    20:00 -3°C° 0 mm 0 mps 755 mmHg 71%
    21:00 -3°C° 0 mm 0 mps 755 mmHg 72%
    22:00 -3°C° 0 mm 0 mps 755 mmHg 72%
    23:00 -3°C° 0 mm 0 mps 755 mmHg 73%

    25 January, Friday

    Time Temperature Precipitation Wind Pressure Humidity
    00:00 -3°C° 0 mm 0 mps 755 mmHg 74%
    01:00 -3°C° 0 mm 0 mps 755 mmHg 75%
    02:00 -3°C° 0 mm 0 mps 755 mmHg 75%
    03:00 -2°C° 0 mm 1 mps 755 mmHg 76%
    04:00 -2°C° 0 mm 1 mps 755 mmHg 76%
    05:00 -3°C° 0 mm 1 mps 755 mmHg 78%
    06:00 -3°C° 0 mm 1 mps 755 mmHg 79%
    07:00 -4°C° 0 mm 0 mps 755 mmHg 80%
    08:00 -4°C° 0 mm 0 mps 756 mmHg 78%
    09:00 -3°C° 0 mm 0 mps 756 mmHg 76%
    10:00 -3°C° 0 mm 0 mps 756 mmHg 73%
    11:00 -2°C° 0 mm 0 mps 756 mmHg 70%
    12:00 -1°C° 0 mm 1 mps 756 mmHg 67%
    13:00 0°C° 0 mm 1 mps 756 mmHg 64%
    14:00 -1°C° 0 mm 1 mps 756 mmHg 66%
    15:00 -1°C° 0 mm 1 mps 756 mmHg 68%
    16:00 -1°C° 0 mm 1 mps 756 mmHg 70%
    17:00 -1°C° 0 mm 1 mps 756 mmHg 71%
    18:00 -3°C° 0 mm 0 mps 756 mmHg 73%
    19:00 -3°C° 0 mm 0 mps 756 mmHg 75%
    20:00 -2°C° 0 mm 1 mps 756 mmHg 77%
    21:00 -2°C° 0 mm 1 mps 756 mmHg 78%
    22:00 -5°C° 0 mm 2 mps 756 mmHg 80%
    23:00 -5°C° 0 mm 2 mps 756 mmHg 84%
    Show more